EVA637 KSEA-RCTP

Flight info

Callsign EVA637
Flight time N/A
Altitude 30000
Route BANGR9 ARRIE DCT TOU DCT DOLFF DCT PRETY DCT 50N140W/N0493F320 52N150W 53N160W DCT RIZON DCT ADK DCT 50N176E/N0493F340 46N170E 39N160E 34N150E/N0487F360 29N140E DCT CANAI V75 TOPAT/N0483F380 V75 NHC V91 MJC R595 GRACE GRACE1A
Aircraft B77L/H-SDE1E2E3FGHIJ2J3J4J5M1RWXY/LB1D1

Departure

Time N/A
Airport Seattle–Tacoma International Airport (KSEA)

Arrival

Time 2026-05-04 16:16
Airport Taiwan Taoyuan International Airport (RCTP)
Time Latitude Longitude Altitude Speed Heading
2026-05-04 14:11 30.59246 142.91203 36048 ft 445 kts 239°
2026-05-04 14:12 30.56016 142.85081 36052 ft 445 kts 239°
2026-05-04 14:13 30.51160 142.75896 36052 ft 445 kts 239°
2026-05-04 14:13 30.47942 142.69823 36052 ft 445 kts 239°
2026-05-04 14:14 30.44695 142.63701 36055 ft 445 kts 239°
2026-05-04 14:14 30.39823 142.54536 36057 ft 445 kts 239°
2026-05-04 14:15 30.33310 142.42317 36056 ft 445 kts 239°
2026-05-04 14:16 30.28446 142.33217 36060 ft 445 kts 239°
2026-05-04 14:17 30.23544 142.24065 36059 ft 445 kts 239°
2026-05-04 14:18 30.18643 142.14937 36059 ft 445 kts 239°
2026-05-04 14:19 30.12125 142.02828 36060 ft 445 kts 239°
2026-05-04 14:19 30.08853 141.96764 36063 ft 444 kts 239°
2026-05-04 14:20 30.05581 141.90708 36065 ft 444 kts 239°
2026-05-04 14:20 30.02307 141.84660 36063 ft 444 kts 239°
2026-05-04 14:21 29.97391 141.75591 36067 ft 444 kts 239°
2026-05-04 14:21 29.94114 141.69559 36065 ft 444 kts 239°
2026-05-04 14:22 29.90830 141.63522 36068 ft 444 kts 239°
2026-05-04 14:22 29.87545 141.57493 36070 ft 444 kts 239°
2026-05-04 14:23 29.82638 141.48504 36069 ft 443 kts 239°
2026-05-04 14:24 29.79354 141.42499 36067 ft 443 kts 239°
2026-05-04 14:24 29.76065 141.36493 36065 ft 443 kts 239°
2026-05-04 14:25 29.72775 141.30494 36068 ft 443 kts 239°
2026-05-04 14:25 29.67830 141.21495 36069 ft 443 kts 239°
2026-05-04 14:26 29.65090 141.16517 36071 ft 443 kts 239°
2026-05-04 14:26 29.61229 141.09513 36068 ft 443 kts 239°
2026-05-04 14:27 29.58483 141.04540 36069 ft 444 kts 239°
2026-05-04 14:27 29.55173 140.98552 36068 ft 444 kts 239°
2026-05-04 14:28 29.51858 140.92564 36070 ft 444 kts 239°
2026-05-04 14:28 29.48544 140.86587 36070 ft 444 kts 239°
2026-05-04 14:29 29.41925 140.74674 36073 ft 444 kts 239°
2026-05-04 14:30 29.38600 140.68703 36074 ft 444 kts 239°
2026-05-04 14:31 29.33618 140.59773 36072 ft 444 kts 239°
2026-05-04 14:32 29.26949 140.47848 36078 ft 444 kts 239°
2026-05-04 14:32 29.23604 140.41880 36075 ft 444 kts 239°
2026-05-04 14:33 29.20275 140.35948 36077 ft 444 kts 239°
2026-05-04 14:33 29.16934 140.30003 36073 ft 444 kts 239°
2026-05-04 14:34 29.13591 140.24065 36074 ft 444 kts 239°
2026-05-04 14:34 29.10243 140.18125 36078 ft 444 kts 239°
2026-05-04 14:35 29.06892 140.12187 36082 ft 444 kts 239°
2026-05-04 14:35 29.03554 140.06280 36079 ft 444 kts 239°
2026-05-04 14:36 29.00291 140.00285 36085 ft 443 kts 243°
2026-05-04 14:36 28.97790 139.93870 36094 ft 442 kts 249°
2026-05-04 14:37 28.95522 139.87337 36078 ft 442 kts 249°
2026-05-04 14:37 28.93255 139.80859 36076 ft 442 kts 249°
2026-05-04 14:38 28.90962 139.74354 36074 ft 441 kts 249°
2026-05-04 14:38 28.88668 139.67866 36077 ft 441 kts 249°
2026-05-04 14:39 28.86367 139.61375 36076 ft 440 kts 249°
2026-05-04 14:39 28.84067 139.54899 36081 ft 440 kts 249°
2026-05-04 14:40 28.80617 139.45202 36073 ft 439 kts 249°
2026-05-04 14:40 28.78315 139.38746 36077 ft 439 kts 249°
2026-05-04 14:41 28.76014 139.32303 36082 ft 439 kts 249°
2026-05-04 14:42 28.71401 139.19425 36079 ft 439 kts 249°
2026-05-04 14:42 28.69090 139.12989 36078 ft 439 kts 249°
2026-05-04 14:43 28.66792 139.06601 36082 ft 438 kts 249°
2026-05-04 14:43 28.64479 139.00183 36078 ft 438 kts 249°
2026-05-04 14:44 28.62160 138.93759 36077 ft 438 kts 249°
2026-05-04 14:44 28.59838 138.87339 36078 ft 438 kts 248°
2026-05-04 14:45 28.57517 138.80931 36081 ft 438 kts 248°
2026-05-04 14:45 28.55189 138.74515 36082 ft 438 kts 248°
2026-05-04 14:46 28.52864 138.68119 36083 ft 437 kts 248°
2026-05-04 14:46 28.50551 138.61767 36079 ft 437 kts 248°
2026-05-04 14:47 28.48223 138.55386 36076 ft 437 kts 248°
2026-05-04 14:47 28.45894 138.49011 36076 ft 436 kts 248°
2026-05-04 14:48 28.43562 138.42641 36078 ft 436 kts 248°
2026-05-04 14:48 28.41229 138.36279 36078 ft 436 kts 248°
2026-05-04 14:49 28.38894 138.29922 36082 ft 436 kts 248°
2026-05-04 14:49 28.36572 138.23609 36085 ft 436 kts 248°
2026-05-04 14:50 28.34231 138.17257 36081 ft 436 kts 248°
2026-05-04 14:50 28.31889 138.10914 36088 ft 435 kts 248°
2026-05-04 14:51 28.29547 138.04579 36086 ft 435 kts 248°
2026-05-04 14:51 28.27201 137.98246 36089 ft 435 kts 248°
2026-05-04 14:52 28.24848 137.91903 36085 ft 436 kts 248°
2026-05-04 14:52 28.22508 137.85607 36090 ft 436 kts 248°
2026-05-04 14:53 28.20149 137.79271 36090 ft 436 kts 248°
2026-05-04 14:53 28.17790 137.72944 36089 ft 436 kts 248°
2026-05-04 14:54 28.15425 137.66613 36087 ft 436 kts 248°
2026-05-04 14:54 28.13060 137.60293 36085 ft 435 kts 248°
2026-05-04 14:55 28.10694 137.53979 36087 ft 435 kts 248°
2026-05-04 14:55 28.08324 137.47666 36089 ft 435 kts 248°
2026-05-04 14:56 28.05967 137.41398 36091 ft 435 kts 248°
2026-05-04 14:56 28.03594 137.35098 36090 ft 435 kts 248°
2026-05-04 14:57 28.01216 137.28793 36090 ft 435 kts 248°
2026-05-04 14:57 27.98838 137.22501 36092 ft 435 kts 248°
2026-05-04 14:58 27.96456 137.16207 36090 ft 435 kts 248°
2026-05-04 14:58 27.94072 137.09919 36087 ft 435 kts 248°
2026-05-04 14:59 27.91697 137.03664 36092 ft 435 kts 248°
2026-05-04 15:00 27.88114 136.94249 36097 ft 435 kts 248°
2026-05-04 15:00 27.85721 136.87972 36093 ft 435 kts 247°
2026-05-04 15:01 27.82154 136.78637 36092 ft 434 kts 247°
2026-05-04 15:01 27.79759 136.72381 36091 ft 434 kts 247°
2026-05-04 15:02 27.77356 136.66115 36087 ft 434 kts 247°
2026-05-04 15:02 27.74956 136.59865 36090 ft 433 kts 247°
2026-05-04 15:03 27.72554 136.53623 36095 ft 433 kts 247°
2026-05-04 15:03 27.70150 136.47384 36088 ft 433 kts 247°
2026-05-04 15:04 27.67759 136.41188 36096 ft 433 kts 247°
2026-05-04 15:04 27.65349 136.34953 36092 ft 433 kts 247°
2026-05-04 15:05 27.62933 136.28714 36094 ft 434 kts 247°
2026-05-04 15:05 27.60514 136.22476 36094 ft 434 kts 247°
2026-05-04 15:06 27.58093 136.16243 36091 ft 434 kts 247°
2026-05-04 15:07 27.54464 136.06918 36097 ft 434 kts 247°
2026-05-04 15:07 27.52032 136.00680 36095 ft 434 kts 247°
2026-05-04 15:08 27.49598 135.94448 36088 ft 434 kts 247°
2026-05-04 15:08 27.47164 135.88226 36095 ft 434 kts 247°
2026-05-04 15:09 27.44722 135.81995 36093 ft 434 kts 247°
2026-05-04 15:09 27.42283 135.75778 36100 ft 434 kts 247°
2026-05-04 15:10 27.38633 135.66496 36096 ft 434 kts 247°
2026-05-04 15:11 27.34961 135.57178 36100 ft 434 kts 247°
2026-05-04 15:11 27.32509 135.50969 36095 ft 434 kts 247°
2026-05-04 15:12 27.30054 135.44760 36100 ft 434 kts 246°
2026-05-04 15:12 27.27592 135.38547 36095 ft 435 kts 246°
2026-05-04 15:13 27.25131 135.32342 36103 ft 435 kts 246°
2026-05-04 15:13 27.22664 135.26135 36100 ft 435 kts 246°
2026-05-04 15:14 27.20210 135.19967 36099 ft 435 kts 246°
2026-05-04 15:14 27.17734 135.13755 36102 ft 436 kts 246°
2026-05-04 15:15 27.15256 135.07547 36100 ft 436 kts 246°
2026-05-04 15:15 27.13191 135.02383 36106 ft 436 kts 246°
2026-05-04 15:16 27.09459 134.93064 36104 ft 436 kts 246°
2026-05-04 15:17 27.05725 134.83762 36105 ft 436 kts 246°
2026-05-04 15:17 27.02002 134.74507 36108 ft 436 kts 246°
2026-05-04 15:18 26.99501 134.68303 36107 ft 436 kts 246°
2026-05-04 15:19 26.95752 134.59020 36109 ft 436 kts 246°
2026-05-04 15:19 26.91992 134.49732 36109 ft 436 kts 246°
2026-05-04 15:20 26.89486 134.43553 36109 ft 436 kts 246°
2026-05-04 15:20 26.86973 134.37366 36110 ft 436 kts 246°
2026-05-04 15:21 26.84456 134.31178 36112 ft 436 kts 246°
2026-05-04 15:22 26.80679 134.21908 36109 ft 436 kts 246°
2026-05-04 15:22 26.76896 134.12646 36106 ft 436 kts 246°
2026-05-04 15:23 26.74371 134.06473 36109 ft 436 kts 246°
2026-05-04 15:23 26.72155 134.00164 36115 ft 435 kts 251°
2026-05-04 15:24 26.65686 133.78860 36111 ft 436 kts 251°
2026-05-04 15:25 26.57798 133.53219 36108 ft 436 kts 251°
2026-05-04 15:26 26.45906 133.14938 36107 ft 436 kts 251°
2026-05-04 15:26 26.33833 132.76546 36102 ft 437 kts 251°
2026-05-04 15:27 26.21663 132.38245 36112 ft 437 kts 251°
2026-05-04 15:28 26.09395 132.00035 36112 ft 437 kts 251°
2026-05-04 15:29 25.97087 131.62088 36115 ft 436 kts 250°
2026-05-04 15:30 25.86634 131.10179 36088 ft 439 kts 272°
2026-05-04 15:30 25.89392 130.69760 36128 ft 437 kts 272°
2026-05-04 15:31 25.92078 130.29450 36125 ft 435 kts 272°
2026-05-04 15:32 25.96288 129.62558 36136 ft 432 kts 271°
2026-05-04 15:33 25.98587 129.35929 36676 ft 434 kts 276°
2026-05-04 15:34 26.03967 128.95889 38196 ft 436 kts 275°
2026-05-04 15:34 26.05704 128.82694 38080 ft 425 kts 275°
2026-05-04 15:34 26.09062 128.57204 38181 ft 416 kts 275°
2026-05-04 15:35 26.12436 128.31406 38202 ft 433 kts 275°
2026-05-04 15:35 26.14134 128.18028 38226 ft 431 kts 274°
2026-05-04 15:36 26.18987 127.79442 38142 ft 412 kts 275°
2026-05-04 15:36 26.20205 127.67773 38136 ft 411 kts 263°
2026-05-04 15:36 26.16038 127.55822 38190 ft 421 kts 238°
2026-05-04 15:37 26.02766 127.34089 38146 ft 428 kts 239°
2026-05-04 15:37 25.89656 127.12465 38115 ft 412 kts 239°
2026-05-04 15:38 25.76766 126.91278 38165 ft 419 kts 239°
2026-05-04 15:38 25.63482 126.69436 38133 ft 429 kts 239°
2026-05-04 15:39 25.50302 126.47812 38098 ft 416 kts 239°
2026-05-04 15:40 25.30948 126.15905 38191 ft 425 kts 239°
2026-05-04 15:40 25.17577 125.94024 38117 ft 427 kts 239°
2026-05-04 15:41 25.04547 125.72792 38098 ft 414 kts 239°
2026-05-04 15:41 24.91552 125.51693 38091 ft 423 kts 238°
2026-05-04 15:42 24.80174 125.33090 38232 ft 430 kts 245°
2026-05-04 15:42 24.78671 125.20206 38159 ft 432 kts 275°
2026-05-04 15:42 24.80483 125.07195 38118 ft 426 kts 275°
2026-05-04 15:43 24.83655 124.81744 38140 ft 416 kts 274°
2026-05-04 15:43 24.86053 124.61718 38085 ft 428 kts 274°
2026-05-04 15:44 24.88866 124.38046 38030 ft 435 kts 274°
2026-05-04 15:44 24.91619 124.14521 38032 ft 424 kts 274°
2026-05-04 15:45 24.94248 123.91198 38200 ft 416 kts 273°
2026-05-04 15:45 24.96689 123.67941 38172 ft 426 kts 274°
2026-05-04 15:45 24.97917 123.56155 38068 ft 433 kts 274°
2026-05-04 15:46 24.99170 123.44051 38027 ft 431 kts 274°
2026-05-04 15:46 25.01599 123.20298 38114 ft 419 kts 274°
2026-05-04 15:47 25.04024 122.96804 38144 ft 417 kts 274°
2026-05-04 15:47 25.05162 122.85292 38259 ft 420 kts 274°
2026-05-04 15:47 25.06317 122.73532 38192 ft 428 kts 274°
2026-05-04 15:48 25.08647 122.49561 38227 ft 431 kts 274°
2026-05-04 15:48 25.09787 122.37693 38118 ft 427 kts 274°
2026-05-04 15:48 25.17137 122.16695 38184 ft 423 kts 295°
2026-05-04 15:49 25.27822 121.96839 38217 ft 429 kts 295°
2026-05-04 15:49 25.38794 121.76229 38124 ft 434 kts 295°
2026-05-04 15:50 25.44442 121.53630 38098 ft 421 kts 255°
2026-05-04 15:50 25.40761 121.47078 37955 ft 433 kts 232°
2026-05-04 15:50 25.32722 121.37123 38127 ft 428 kts 234°
2026-05-04 15:51 25.19559 121.20337 38187 ft 429 kts 234°
2026-05-04 15:51 25.15670 121.15348 38035 ft 410 kts 239°
2026-05-04 15:52 25.14399 121.12671 37852 ft 381 kts 254°
2026-05-04 15:52 25.13818 121.09887 37168 ft 364 kts 263°
2026-05-04 15:52 25.13637 121.07138 36208 ft 357 kts 267°
2026-05-04 15:52 25.13560 121.04434 35250 ft 351 kts 267°
2026-05-04 15:53 25.13554 121.01949 34438 ft 345 kts 271°
2026-05-04 15:53 25.13887 120.99230 33477 ft 341 kts 280°
2026-05-04 15:53 25.14713 120.96736 32415 ft 345 kts 290°
2026-05-04 15:53 25.15963 120.94482 31321 ft 352 kts 298°
2026-05-04 15:54 25.17595 120.92384 30257 ft 361 kts 306°
2026-05-04 15:54 25.19475 120.90561 29167 ft 367 kts 313°
2026-05-04 15:54 25.21646 120.89003 28200 ft 370 kts 322°
2026-05-04 15:54 25.23195 120.88180 27570 ft 373 kts 328°
2026-05-04 15:55 25.26484 120.87113 26379 ft 381 kts 341°
2026-05-04 15:55 25.29140 120.86848 25525 ft 386 kts 351°
2026-05-04 15:55 25.31825 120.87086 24732 ft 390 kts
2026-05-04 15:55 25.34465 120.87836 23954 ft 394 kts 11°
2026-05-04 15:56 25.37006 120.88991 23100 ft 393 kts 18°
2026-05-04 15:56 25.38647 120.89921 22494 ft 393 kts 23°
2026-05-04 15:56 25.40880 120.91603 21615 ft 398 kts 37°
2026-05-04 15:56 25.42741 120.93925 20979 ft 404 kts 47°
2026-05-04 15:57 25.44466 120.96343 20594 ft 400 kts 55°
2026-05-04 15:57 25.45662 120.99118 20204 ft 400 kts 71°
2026-05-04 15:57 25.46375 121.02078 19904 ft 395 kts 79°
2026-05-04 15:57 25.46771 121.05078 19579 ft 391 kts 86°
2026-05-04 15:58 25.46839 121.08052 19221 ft 381 kts 96°
2026-05-04 15:58 25.46517 121.10916 18538 ft 369 kts 107°
2026-05-04 15:58 25.45757 121.13581 17631 ft 360 kts 118°
2026-05-04 15:58 25.44611 121.16007 16724 ft 351 kts 129°
2026-05-04 15:59 25.43172 121.18150 15854 ft 341 kts 137°
2026-05-04 15:59 25.41549 121.19963 15060 ft 330 kts 146°
2026-05-04 15:59 25.39762 121.21478 14283 ft 320 kts 154°
2026-05-04 15:59 25.37830 121.22691 13438 ft 310 kts 161°
2026-05-04 16:00 25.35885 121.23548 12582 ft 301 kts 169°
2026-05-04 16:00 25.33883 121.24107 11724 ft 293 kts 175°
2026-05-04 16:00 25.31877 121.24368 10995 ft 290 kts 183°
2026-05-04 16:00 25.29897 121.24345 10817 ft 277 kts 189°
2026-05-04 16:01 25.28037 121.24089 10715 ft 262 kts 196°
2026-05-04 16:01 25.26316 121.23614 10550 ft 250 kts 202°
2026-05-04 16:01 25.24701 121.22970 10304 ft 243 kts 206°
2026-05-04 16:01 25.23166 121.22243 10066 ft 237 kts 210°
2026-05-04 16:02 25.21710 121.21413 9821 ft 233 kts 212°
2026-05-04 16:02 25.20317 121.20515 9559 ft 231 kts 216°
2026-05-04 16:02 25.17889 121.18244 9048 ft 228 kts 230°
2026-05-04 16:03 25.16842 121.16925 8802 ft 229 kts 231°
2026-05-04 16:03 25.15799 121.15583 8556 ft 233 kts 231°
2026-05-04 16:03 25.14715 121.14192 8335 ft 243 kts 230°
2026-05-04 16:03 25.13612 121.12786 8082 ft 240 kts 230°
2026-05-04 16:04 25.12532 121.11412 7843 ft 238 kts 230°
2026-05-04 16:04 25.10359 121.08650 7353 ft 237 kts 230°
2026-05-04 16:04 25.09276 121.07273 7117 ft 236 kts 230°
2026-05-04 16:05 25.08199 121.05905 6871 ft 236 kts 229°
2026-05-04 16:05 25.07138 121.04557 6636 ft 236 kts 229°
2026-05-04 16:05 25.04986 121.01824 6167 ft 235 kts 229°
2026-05-04 16:06 25.03925 121.00479 5900 ft 231 kts 229°
2026-05-04 16:06 25.01117 120.96918 5244 ft 232 kts 229°
2026-05-04 16:07 24.99692 120.95113 4931 ft 235 kts 229°
2026-05-04 16:07 24.96322 120.91283 4239 ft 224 kts 207°
2026-05-04 16:08 24.94837 120.90674 4168 ft 235 kts 196°
2026-05-04 16:08 24.90125 120.91611 4035 ft 251 kts 133°
2026-05-04 16:09 24.89267 120.95273 4000 ft 245 kts 76°
2026-05-04 16:09 24.90298 120.98505 4000 ft 210 kts 71°
2026-05-04 16:10 24.91499 121.01692 4040 ft 240 kts 52°
2026-05-04 16:11 24.94873 121.05790 3481 ft 236 kts 49°
2026-05-04 16:11 24.95933 121.07135 3229 ft 230 kts 50°
2026-05-04 16:12 24.98803 121.10787 2490 ft 183 kts 53°
2026-05-04 16:12 25.00960 121.13535 1950 ft 140 kts 54°
2026-05-04 16:13 25.02165 121.15073 1614 ft 132 kts 54°
2026-05-04 16:13 25.03360 121.16597 1278 ft 133 kts 53°
2026-05-04 16:14 25.04596 121.18173 926 ft 136 kts 52°
2026-05-04 16:14 25.05770 121.19658 630 ft 126 kts 51°
2026-05-04 16:15 25.07553 121.21933 110 ft 125 kts 53°
2026-05-04 16:16 25.08309 121.22886 108 ft 60 kts 49°
2026-05-04 16:16 25.08991 121.23694 106 ft 37 kts 27°
2026-05-04 16:17 25.09318 121.23822 106 ft 17 kts 18°
2026-05-04 16:18 25.09476 121.23884 107 ft 1 kts 22°
2026-05-04 16:18 25.09512 121.23913 108 ft 15 kts 42°
2026-05-04 16:19 25.09688 121.24063 106 ft 6 kts 326°
2026-05-04 16:19 25.09729 121.24025 107 ft 2 kts 319°
2026-05-04 16:20 25.09732 121.24023 105 ft 0 kts 319°